Погода в Пироте

Сербия     43°09′05″N   22°35′22″E
темп.,
°C
ветер,
м/с
пор.,
м/с
влажн.,
%
обл.,
%
осадки,
мм/ч
давл.,
гПа
погр.,
м
18 января, пн
пн1801:00−13с119695 0.1 102321
04:00−13сз0098100 0.1 102422
07:00−13зсз0197100 0.2 102522
10:00−9з1192100 0.1 1025226
13:00−7зсз238597 0.1 1024591
16:00−11зсз119175 0.1 102421
19:00−14ссз119437 0.1 102621
22:00−14ссв11940 0.0 102720
19 января, вт
вт1901:00−14ссв019238 0.0 102820
04:00−13ссв019180 0.0 102720
07:00−11ю019788 0.2 102821
10:00−7ююз1193100 0.1 1028157
13:00−4з129199 0.3 1026276
16:00−7св019688 0.1 102621
19:00−8вюв129146 0.1 102622
22:00−7вюв23864 0.0 102628
20 января, ср
ср2001:00−6юв238429 0.0 102640
04:00−7юв228056 0.0 102625
07:00−7юв227729 0.0 102624
10:00−2юв238127 0.0 1026148
13:000ююв239160 0.0 1024203
16:00−2юв22870 0.0 102426
19:00−3юв22830 0.0 102525
22:00−3вюв238440 0.0 102528
21 января, чт
чт2101:00−3юв238367 0.0 102432
04:00−2юв2381100 0.0 102335
07:00−1юв3381100 0.0 102457
10:00+1юв348554 0.0 1023110
13:00+2вюв239555 0.0 102288
16:00+1вюв238220 0.0 102132
19:000вюв338110 0.0 102238
22:000вюв348267 0.0 102177
22 января, пт
пт2201:000вюв348583 0.0 102075
04:00+1вюв3486100 0.0 1018102
07:00+1вюв458598 0.0 1018109
10:00+2юв349774 0.0 1017112
13:00+3вюв349787 0.0 101596
16:00+3вюв349029 0.0 101361
19:00+2вюв459052 0.0 101388
22:00+2вюв4690100 0.0 1011111